Weather History for Massena, NY

Change the Weather History Date:

Tuesday, November 13, 2012

  Actual Average Record
Temperature  
Mean Temperature 36 °F 37 °F  
Max Temperature 49 °F 45 °F 66 °F (2005)
Min Temperature 22 °F 28 °F 12 °F (1986)
Degree Days  
Heating Degree Days 29 28  
Month to date heating degree days 369 342  
Since 1 July heating degree days 1014 1223  
Moisture  
Dew Point 31 °F    
Average Humidity 70    
Maximum Humidity 96    
Minimum Humidity 43    
Precipitation  
Precipitation 0.18 in 0.10 in 0.73 in (1974)
Month to date precipitation 0.49 1.36  
Year to date precipitation 26.38 30.86  
Sea Level Pressure  
Sea Level Pressure 30.31 in    
Wind  
Wind Speed 9 mph (WSW)    
Max Wind Speed 22 mph    
Max Gust Speed 30 mph    
Visibility 9 miles    
Events Rain    
T = Trace of Precipitation, MM = Missing Value Source: NWS Daily Summary

Daily Weather History Graph

Daily Weather History Graph

Search for Another Location

Airport:

Trip Planner

Search our weather history database for the weather conditions in past years. The results will help you decide how hot, cold, wet, or windy it might be!

Date:

Astronomy

Nov. 13, 2012 Rise Set
Actual Time 6:54 AM EST 4:32 PM EST
Civil Twilight 6:23 AM EST 5:03 PM EST
Nautical Twilight 5:47 AM EST 5:39 PM EST
Astronomical Twilight 5:13 AM EST 6:13 PM EST
Moon 6:30 AM EST (11/13) 4:21 PM EST (11/13)
Length of Visible Light 10h 40m
Length of Day
9h 37m
Waning Crescent, 0% of the Moon is Illuminated
Nov 13
Waning Crescent
Nov 13
New
Nov 20
First Quarter
Nov 28
Full
Dec 6
Last Quarter

Hourly Weather History & Observations

Time (EST) Temp. Windchill Dew Point Humidity Pressure Visibility Wind Dir Wind Speed Gust Speed Precip Events Conditions
12:01 AM 48.2 °F - 46.4 °F 93% 30.05 in 4.0 mi West 12.7 mph 24.2 mph 0.01 in Rain Rain
12:10 AM 48.2 °F - 46.4 °F 93% 30.06 in 4.0 mi West 17.3 mph 24.2 mph 0.02 in Rain Light Rain
12:53 AM 48.0 °F - 46.0 °F 93% 30.11 in 6.0 mi West 12.7 mph 24.2 mph 0.07 in Rain Light Rain
1:06 AM 46.4 °F 40.1 °F 44.6 °F 93% 30.11 in 9.0 mi West 15.0 mph 28.8 mph 0.01 in Rain Light Rain
1:53 AM 45.0 °F 38.2 °F 42.1 °F 90% 30.12 in 10.0 mi WSW 15.0 mph 21.9 mph 0.03 in Rain Light Rain
2:43 AM 44.6 °F 38.1 °F 39.2 °F 81% 30.16 in 5.0 mi WSW 13.8 mph 25.3 mph 0.05 in Rain Rain
2:53 AM 43.0 °F 38.2 °F 41.0 °F 93% 30.17 in 5.0 mi WSW 8.1 mph 18.4 mph 0.06 in Rain Rain
3:07 AM 42.8 °F 35.8 °F 39.2 °F 87% 30.16 in 7.0 mi WSW 13.8 mph 19.6 mph 0.02 in Rain Light Rain
3:53 AM 41.0 °F 33.9 °F 37.9 °F 89% 30.17 in 10.0 mi SW 12.7 mph 21.9 mph 0.03 in Rain Light Rain
4:21 AM 39.2 °F 32.0 °F 37.4 °F 93% 30.16 in 10.0 mi SSW 11.5 mph - 0.00 in   Mostly Cloudy
4:53 AM 39.9 °F 32.9 °F 37.9 °F 93% 30.18 in 10.0 mi SW 11.5 mph - 0.00 in   Mostly Cloudy
5:53 AM 39.9 °F 32.9 °F 37.0 °F 89% 30.19 in 10.0 mi SW 11.5 mph - N/A   Overcast
6:53 AM 39.0 °F 31.8 °F 33.1 °F 79% 30.23 in 10.0 mi SW 11.5 mph 20.7 mph N/A   Partly Cloudy
7:53 AM 39.0 °F 32.8 °F 30.9 °F 73% 30.27 in 10.0 mi WSW 9.2 mph - N/A   Overcast
8:53 AM 39.0 °F 30.6 °F 28.9 °F 67% 30.29 in 10.0 mi WSW 15.0 mph 21.9 mph N/A   Clear
9:53 AM 41.0 °F 32.2 °F 26.1 °F 55% 30.32 in 10.0 mi WSW 18.4 mph 27.6 mph N/A   Clear
10:53 AM 43.0 °F 35.7 °F 27.0 °F 53% 30.32 in 10.0 mi WSW 15.0 mph 24.2 mph N/A   Mostly Cloudy
11:53 AM 43.0 °F 35.1 °F 21.9 °F 43% 30.32 in 10.0 mi West 17.3 mph 26.5 mph N/A   Mostly Cloudy
12:53 PM 43.0 °F 34.8 °F 24.1 °F 47% 30.34 in 10.0 mi West 18.4 mph 25.3 mph N/A   Mostly Cloudy
1:53 PM 42.1 °F 35.7 °F 26.1 °F 53% 30.35 in 10.0 mi WNW 11.5 mph - N/A   Mostly Cloudy
2:53 PM 42.1 °F 35.2 °F 24.1 °F 49% 30.37 in 10.0 mi WNW 12.7 mph - N/A   Partly Cloudy
3:53 PM 39.9 °F 33.4 °F 24.1 °F 53% 30.39 in 10.0 mi West 10.4 mph - N/A   Clear
4:53 PM 37.0 °F 34.5 °F 24.1 °F 59% 30.41 in 10.0 mi WNW 3.5 mph - N/A   Clear
5:53 PM 36.0 °F - 24.1 °F 62% 30.44 in 10.0 mi Calm Calm - N/A   Clear
6:53 PM 28.9 °F - 25.0 °F 85% 30.47 in 10.0 mi Calm Calm - N/A   Clear
7:53 PM 27.0 °F - 23.0 °F 85% 30.49 in 10.0 mi Calm Calm - N/A   Clear
8:53 PM 25.0 °F - 23.0 °F 92% 30.51 in 10.0 mi Calm Calm - N/A   Clear
9:53 PM 24.1 °F - 21.9 °F 91% 30.52 in 10.0 mi Calm Calm - N/A   Clear
10:53 PM 23.0 °F - 21.0 °F 92% 30.53 in 9.0 mi Calm Calm - N/A   Clear
11:18 PM 23.0 °F - 21.2 °F 93% 30.52 in 1.8 mi Calm Calm - N/A   Clear
11:23 PM 23.0 °F - 21.2 °F 93% 30.52 in 3.0 mi Calm Calm - N/A   Clear
11:53 PM 24.1 °F - 21.9 °F 91% 30.55 in 10.0 mi Calm Calm - N/A   Clear